When you browse on this site, cookies collect data to enhance your experience and personalize the content and advertising you see.
Visit our Privacy Policy to learn more. By continuing to use the site, you agree to this use of cookies and data.
  • In Austria
  • List of Countries
  • For 7 days
  • Water Temperature
  • Weather Map
  • News
  • Weather Widgets
  • user-avatar
    Login

    Hourly Weather Bakans

    Today, 15 December, Sunday

    Time Temperature Precipitation Wind Pressure Humidity
    00:00 -4°C° 2 mm 8 mps 738 mmHg 96%
    01:00 -3°C° 2 mm 9 mps 736 mmHg 96%
    02:00 -1°C° 2 mm 9 mps 734 mmHg 95%
    03:00 0°C° 2.9 mm 8 mps 731 mmHg 96%
    04:00 +1°C° 2.9 mm 8 mps 729 mmHg 97%
    05:00 +3°C° 2.9 mm 7 mps 727 mmHg 98%
    06:00 +4°C° 0.7 mm 7 mps 726 mmHg 98%
    07:00 +5°C° 0.7 mm 7 mps 724 mmHg 98%
    08:00 +6°C° 0.7 mm 7 mps 723 mmHg 97%
    09:00 +8°C° 0 mm 7 mps 722 mmHg 97%
    10:00 +8°C° 0 mm 7 mps 722 mmHg 97%
    11:00 +9°C° 0 mm 7 mps 721 mmHg 97%
    12:00 +8°C° 0 mm 6 mps 720 mmHg 96%
    13:00 +8°C° 0 mm 6 mps 719 mmHg 96%
    14:00 +8°C° 0 mm 6 mps 719 mmHg 95%
    15:00 +7°C° 0.1 mm 6 mps 718 mmHg 94%
    16:00 +6°C° 0.1 mm 7 mps 717 mmHg 93%
    17:00 +5°C° 0.1 mm 7 mps 717 mmHg 92%
    18:00 +4°C° 0.1 mm 7 mps 717 mmHg 92%
    19:00 +3°C° 0.1 mm 7 mps 717 mmHg 92%
    20:00 +2°C° 0.1 mm 7 mps 717 mmHg 92%
    21:00 0°C° 0.1 mm 7 mps 716 mmHg 91%
    22:00 -1°C° 0.1 mm 8 mps 716 mmHg 90%
    23:00 -4°C° 0.1 mm 8 mps 716 mmHg 89%

    Tomorrow, 16 December, Monday

    Time Temperature Precipitation Wind Pressure Humidity
    00:00 -5°C° 0 mm 9 mps 716 mmHg 86%
    01:00 -6°C° 0 mm 9 mps 716 mmHg 83%
    02:00 -8°C° 0 mm 10 mps 716 mmHg 80%
    03:00 -9°C° 0 mm 10 mps 716 mmHg 80%
    04:00 -9°C° 0 mm 10 mps 716 mmHg 80%
    05:00 -11°C° 0 mm 11 mps 716 mmHg 80%
    06:00 -12°C° 0 mm 11 mps 716 mmHg 79%
    07:00 -12°C° 0 mm 11 mps 717 mmHg 77%
    08:00 -13°C° 0 mm 11 mps 717 mmHg 76%
    09:00 -13°C° 0.1 mm 11 mps 717 mmHg 75%
    10:00 -15°C° 0.1 mm 12 mps 717 mmHg 75%
    11:00 -15°C° 0.1 mm 12 mps 717 mmHg 74%
    12:00 -15°C° 0.1 mm 13 mps 717 mmHg 75%
    13:00 -15°C° 0.1 mm 13 mps 717 mmHg 75%
    14:00 -15°C° 0.1 mm 13 mps 717 mmHg 76%
    15:00 -16°C° 0.1 mm 13 mps 718 mmHg 77%
    16:00 -16°C° 0.1 mm 13 mps 718 mmHg 79%
    17:00 -16°C° 0.1 mm 13 mps 718 mmHg 80%
    18:00 -16°C° 0.1 mm 13 mps 718 mmHg 80%
    19:00 -16°C° 0.1 mm 13 mps 718 mmHg 80%
    20:00 -16°C° 0.1 mm 13 mps 719 mmHg 80%
    21:00 -16°C° 0.2 mm 13 mps 719 mmHg 81%
    22:00 -16°C° 0.2 mm 13 mps 719 mmHg 82%
    23:00 -15°C° 0.2 mm 13 mps 719 mmHg 83%

    Day after tomorrow, 17 December, Tuesday

    Time Temperature Precipitation Wind Pressure Humidity
    00:00 -15°C° 0.2 mm 13 mps 720 mmHg 83%
    01:00 -15°C° 0.2 mm 13 mps 721 mmHg 83%
    02:00 -15°C° 0.2 mm 13 mps 721 mmHg 83%
    03:00 -15°C° 0.2 mm 13 mps 722 mmHg 83%
    04:00 -15°C° 0.2 mm 13 mps 722 mmHg 82%
    05:00 -15°C° 0.2 mm 13 mps 723 mmHg 82%
    06:00 -15°C° 0.1 mm 13 mps 723 mmHg 82%
    07:00 -14°C° 0.1 mm 13 mps 724 mmHg 81%
    08:00 -14°C° 0.1 mm 13 mps 725 mmHg 81%
    09:00 -14°C° 0.1 mm 13 mps 725 mmHg 80%
    10:00 -14°C° 0.1 mm 13 mps 725 mmHg 78%
    11:00 -12°C° 0.1 mm 13 mps 726 mmHg 77%
    12:00 -14°C° 0 mm 13 mps 726 mmHg 76%
    13:00 -14°C° 0 mm 13 mps 726 mmHg 75%
    14:00 -13°C° 0 mm 12 mps 727 mmHg 73%
    15:00 -13°C° 0 mm 12 mps 727 mmHg 74%
    16:00 -13°C° 0 mm 11 mps 728 mmHg 75%
    17:00 -14°C° 0 mm 11 mps 728 mmHg 77%
    18:00 -14°C° 0 mm 10 mps 728 mmHg 78%
    19:00 -14°C° 0 mm 9 mps 728 mmHg 79%
    20:00 -13°C° 0 mm 8 mps 728 mmHg 81%
    21:00 -13°C° 0 mm 7 mps 728 mmHg 82%
    22:00 -12°C° 0 mm 6 mps 728 mmHg 84%
    23:00 -12°C° 0 mm 5 mps 728 mmHg 85%

    18 December, Wednesday

    Time Temperature Precipitation Wind Pressure Humidity
    00:00 -11°C° 0 mm 4 mps 728 mmHg 86%
    01:00 -11°C° 0 mm 4 mps 728 mmHg 87%
    02:00 -12°C° 0 mm 3 mps 727 mmHg 87%
    03:00 -12°C° 0 mm 3 mps 727 mmHg 87%
    04:00 -12°C° 0 mm 3 mps 727 mmHg 88%
    05:00 -12°C° 0 mm 4 mps 727 mmHg 88%
    06:00 -12°C° 0 mm 4 mps 727 mmHg 87%
    07:00 -12°C° 0 mm 4 mps 727 mmHg 86%
    08:00 -12°C° 0 mm 4 mps 727 mmHg 86%
    09:00 -12°C° 0 mm 4 mps 727 mmHg 84%
    10:00 -11°C° 0 mm 4 mps 727 mmHg 82%
    11:00 -11°C° 0 mm 4 mps 727 mmHg 80%
    12:00 -11°C° 0 mm 4 mps 727 mmHg 80%
    13:00 -10°C° 0 mm 4 mps 727 mmHg 80%
    14:00 -9°C° 0 mm 3 mps 727 mmHg 80%
    15:00 -10°C° 0 mm 3 mps 728 mmHg 83%
    16:00 -10°C° 0 mm 2 mps 728 mmHg 86%
    17:00 -12°C° 0 mm 2 mps 728 mmHg 89%
    18:00 -12°C° 0 mm 2 mps 729 mmHg 89%
    19:00 -13°C° 0 mm 2 mps 729 mmHg 89%
    20:00 -13°C° 0 mm 2 mps 729 mmHg 89%
    21:00 -13°C° 0 mm 2 mps 729 mmHg 90%
    22:00 -11°C° 0 mm 1 mps 729 mmHg 90%
    23:00 -11°C° 0 mm 1 mps 729 mmHg 90%

    19 December, Thursday

    Time Temperature Precipitation Wind Pressure Humidity
    00:00 -12°C° 0 mm 1 mps 729 mmHg 90%
    01:00 -12°C° 0 mm 1 mps 729 mmHg 91%
    02:00 -12°C° 0 mm 1 mps 729 mmHg 91%
    03:00 -12°C° 0 mm 1 mps 729 mmHg 91%
    04:00 -12°C° 0 mm 1 mps 729 mmHg 91%
    05:00 -12°C° 0 mm 1 mps 728 mmHg 91%
    06:00 -12°C° 0 mm 1 mps 728 mmHg 91%
    07:00 -12°C° 0 mm 1 mps 728 mmHg 91%
    08:00 -12°C° 0 mm 0 mps 728 mmHg 90%
    09:00 -11°C° 0 mm 0 mps 728 mmHg 86%
    10:00 -10°C° 0 mm 0 mps 728 mmHg 82%
    11:00 -9°C° 0 mm 0 mps 728 mmHg 78%
    12:00 -9°C° 0 mm 1 mps 727 mmHg 79%
    13:00 -10°C° 0 mm 2 mps 726 mmHg 79%
    14:00 -10°C° 0 mm 2 mps 726 mmHg 79%
    15:00 -10°C° 0 mm 2 mps 726 mmHg 82%
    16:00 -12°C° 0 mm 2 mps 726 mmHg 85%
    17:00 -13°C° 0 mm 2 mps 726 mmHg 88%
    18:00 -13°C° 0 mm 2 mps 726 mmHg 88%
    19:00 -13°C° 0 mm 2 mps 726 mmHg 89%
    20:00 -13°C° 0 mm 2 mps 726 mmHg 90%
    21:00 -14°C° 0 mm 3 mps 726 mmHg 89%
    22:00 -15°C° 0 mm 4 mps 726 mmHg 88%
    23:00 -15°C° 0 mm 5 mps 726 mmHg 88%

    20 December, Friday

    Time Temperature Precipitation Wind Pressure Humidity
    00:00 -16°C° 0 mm 6 mps 726 mmHg 87%
    01:00 -15°C° 0 mm 6 mps 726 mmHg 86%
    02:00 -15°C° 0 mm 7 mps 726 mmHg 85%
    03:00 -15°C° 0 mm 7 mps 727 mmHg 85%
    04:00 -15°C° 0 mm 7 mps 727 mmHg 85%
    05:00 -15°C° 0 mm 7 mps 728 mmHg 85%
    06:00 -14°C° 0.1 mm 7 mps 728 mmHg 85%
    07:00 -14°C° 0.1 mm 6 mps 729 mmHg 86%
    08:00 -12°C° 0.1 mm 6 mps 729 mmHg 86%
    09:00 -12°C° 0.6 mm 6 mps 730 mmHg 87%
    10:00 -11°C° 0.6 mm 5 mps 730 mmHg 88%
    11:00 -10°C° 0.6 mm 5 mps 731 mmHg 88%
    12:00 -8°C° 0.2 mm 5 mps 731 mmHg 88%
    13:00 -8°C° 0.2 mm 5 mps 732 mmHg 89%
    14:00 -7°C° 0.2 mm 5 mps 732 mmHg 89%
    15:00 -7°C° 0.2 mm 5 mps 732 mmHg 90%
    16:00 -7°C° 0.2 mm 4 mps 733 mmHg 91%
    17:00 -7°C° 0.2 mm 4 mps 733 mmHg 92%
    18:00 -8°C° 0 mm 4 mps 734 mmHg 92%
    19:00 -8°C° 0 mm 4 mps 734 mmHg 92%
    20:00 -9°C° 0 mm 4 mps 734 mmHg 91%
    21:00 -10°C° 0 mm 5 mps 734 mmHg 90%
    22:00 -10°C° 0 mm 5 mps 734 mmHg 89%
    23:00 -11°C° 0 mm 5 mps 734 mmHg 88%
    Show more